Вернуться в каталог

STARLINK-4457

АктивенСвязьSSO
NORAD 53663·PAYLOAD·🇺🇸 United States

Запущен Aug 31, 2022 с Vandenberg Space Force Base

Loading…

Ближайшие Пролёты (ближайшие 24 часа)

TLE

СвежийSource: CelesTrak SupGP

Эпоха: Sep 15, 2026, 02:16 UTC

1 53663C 22105R   26258.09493056  .00067588  00000+0  20981-2 0  2585
2 53663  97.2839 134.9145 0002286  93.6698 133.1078 15.33403621    11

Отслеживайте STARLINK-4457 в реальном времени с AllMySat

Download on the App Store